Location: Peebles
(55.6412°N, 3.1714°W)
Time: 10:15:50
(UTC+01:00)

NOSS 3-3 (A) - Pass Details

Date: 31 January 2022
Orbit: 789 x 1423 km, 63.4° (Epoch: 23 April)

Event Time Altitude Azimuth Distance (km) Brightness Sun altitude
Rises 06:43:27 0° 207° (SSW) 3,383 6.7 -11.9°
Reaches altitude 10° 06:45:49 10° 202° (SSW) 2,507 6.1 -11.5°
Maximum altitude 06:51:25 52° 128° (SE) 1,164 4.9 -10.8°
Drops below altitude 10° 06:57:54 10° 54° (NE) 2,900 7.0 -9.9°
Sets 07:00:50 0° 50° (NE) 3,961 7.7 -9.5°
